| time (UTC) | temp F | wind direction | speed MPH | gust MPH | rain 1hr in | rain 24hr in | rain mn in | humidity % | barometer mb |
| 20260506231726 | 73 | 0 | 10.0 | 16.0 | 0.00 | 0.00 | 0.00 | 59 | 1016.0 |
| 20260506231228 | 72 | 299 | 6.0 | 16.0 | 0.00 | 0.00 | 0.00 | 60 | 1015.9 |
| 20260506230953 | 72 | 276 | 11.0 | 19.0 | 0.00 | 0.00 | 0.00 | 61 | 1016.0 |
| 20260506230226 | 72 | 300 | 9.0 | 19.0 | 0.00 | 0.00 | 0.00 | 60 | 1016.1 |
| 20260506225727 | 73 | 243 | 10.0 | 16.0 | 0.00 | 0.00 | 0.00 | 59 | 1016.1 |
| 20260506225226 | 73 | 341 | 7.0 | 15.0 | 0.00 | 0.00 | 0.00 | 59 | 1016.2 |
| 20260506224728 | 73 | 329 | 11.0 | 16.0 | 0.00 | 0.00 | 0.00 | 58 | 1016.2 |
| 20260506224226 | 73 | 314 | 9.0 | 16.0 | 0.00 | 0.00 | 0.00 | 58 | 1016.2 |
| 20260506223727 | 73 | 299 | 9.0 | 14.0 | 0.00 | 0.00 | 0.00 | 59 | 1016.2 |
| 20260506223227 | 73 | 268 | 8.0 | 13.0 | 0.00 | 0.00 | 0.00 | 58 | 1016.3 |
| 20260506222726 | 73 | 258 | 9.0 | 13.0 | 0.00 | 0.00 | 0.00 | 58 | 1016.3 |
| 20260506222447 | 73 | 289 | 6.0 | 13.0 | 0.00 | 0.00 | 0.00 | 59 | 1016.3 |
| 20260506221727 | 73 | 347 | 7.0 | 13.0 | 0.00 | 0.00 | 0.00 | 58 | 1016.5 |
| 20260506221227 | 73 | 336 | 9.0 | 12.0 | 0.00 | 0.00 | 0.00 | 58 | 1016.4 |
| 20260506220951 | 72 | 341 | 7.0 | 13.0 | 0.00 | 0.00 | 0.00 | 57 | 1016.5 |
| 20260506220227 | 73 | 286 | 8.0 | 13.0 | 0.00 | 0.00 | 0.00 | 57 | 1016.6 |
| 20260506215728 | 72 | 319 | 7.0 | 14.0 | 0.00 | 0.00 | 0.00 | 58 | 1016.6 |
| 20260506215228 | 72 | 334 | 8.0 | 14.0 | 0.00 | 0.00 | 0.00 | 58 | 1016.7 |
| 20260506214725 | 71 | 275 | 8.0 | 14.0 | 0.00 | 0.00 | 0.00 | 60 | 1016.7 |
| 20260506214452 | 72 | 278 | 4.0 | 14.0 | 0.00 | 0.00 | 0.00 | 59 | 1016.9 |
| 20260506213725 | 72 | 309 | 6.0 | 12.0 | 0.00 | 0.00 | 0.00 | 59 | 1016.8 |
| 20260506213225 | 72 | 317 | 6.0 | 11.0 | 0.00 | 0.00 | 0.00 | 58 | 1016.9 |
| 20260506212726 | 72 | 289 | 7.0 | 12.0 | 0.00 | 0.00 | 0.00 | 58 | 1016.9 |
| 20260506212226 | 71 | 334 | 7.0 | 12.0 | 0.00 | 0.00 | 0.00 | 61 | 1017.0 |
| 20260506211724 | 71 | 293 | 5.0 | 11.0 | 0.00 | 0.00 | 0.00 | 59 | 1017.0 |
| 20260506211225 | 71 | 275 | 5.0 | 14.0 | 0.00 | 0.00 | 0.00 | 60 | 1017.1 |
| 20260506210723 | 71 | 298 | 10.0 | 14.0 | 0.00 | 0.00 | 0.00 | 59 | 1017.1 |
| 20260506210224 | 71 | 300 | 7.0 | 14.0 | 0.00 | 0.00 | 0.00 | 60 | 1017.0 |
| 20260506205724 | 71 | 288 | 6.0 | 14.0 | 0.00 | 0.00 | 0.00 | 61 | 1017.1 |
| 20260506205225 | 71 | 303 | 6.0 | 13.0 | 0.00 | 0.00 | 0.00 | 61 | 1017.0 |
| 20260506204723 | 71 | 261 | 8.0 | 13.0 | 0.00 | 0.00 | 0.00 | 60 | 1017.2 |
| 20260506204223 | 71 | 272 | 8.0 | 12.0 | 0.00 | 0.00 | 0.00 | 60 | 1017.2 |
| 20260506203949 | 70 | 281 | 6.0 | 14.0 | 0.00 | 0.00 | 0.00 | 61 | 1017.3 |
| 20260506203224 | 71 | 271 | 10.0 | 14.0 | 0.00 | 0.00 | 0.00 | 59 | 1017.4 |
| 20260506202723 | 71 | 334 | 7.0 | 11.0 | 0.00 | 0.00 | 0.00 | 61 | 1017.5 |
| 20260506202223 | 70 | 345 | 6.0 | 10.0 | 0.00 | 0.00 | 0.00 | 61 | 1017.6 |
| 20260506201723 | 70 | 319 | 5.0 | 11.0 | 0.00 | 0.00 | 0.00 | 61 | 1017.5 |
| 20260506201222 | 70 | 300 | 7.0 | 14.0 | 0.00 | 0.00 | 0.00 | 61 | 1017.5 |
| 20260506200723 | 69 | 309 | 4.0 | 14.0 | 0.00 | 0.00 | 0.00 | 62 | 1017.6 |
| 20260506200446 | 69 | 281 | 6.0 | 11.0 | 0.00 | 0.00 | 0.00 | 62 | 1017.6 |
| 20260506195947 | 68 | 257 | 7.0 | 10.0 | 0.00 | 0.00 | 0.00 | 64 | 1017.6 |
| 20260506195448 | 68 | 290 | 6.0 | 14.0 | 0.00 | 0.00 | 0.00 | 64 | 1017.7 |
| 20260506194723 | 68 | 245 | 5.0 | 14.0 | 0.00 | 0.00 | 0.00 | 62 | 1017.7 |
| 20260506194223 | 68 | 274 | 5.0 | 13.0 | 0.00 | 0.00 | 0.00 | 65 | 1017.7 |
| 20260506193722 | 67 | 276 | 4.0 | 13.0 | 0.00 | 0.00 | 0.00 | 66 | 1017.7 |
| 20260506193222 | 67 | 271 | 8.0 | 13.0 | 0.00 | 0.00 | 0.00 | 64 | 1017.8 |
| 20260506192722 | 67 | 290 | 4.0 | 11.0 | 0.00 | 0.00 | 0.00 | 66 | 1017.8 |
| 20260506192223 | 66 | 279 | 7.0 | 12.0 | 0.00 | 0.00 | 0.00 | 67 | 1018.0 |
| 20260506191724 | 66 | 285 | 8.0 | 12.0 | 0.00 | 0.00 | 0.00 | 67 | 1018.0 |
| 20260506191224 | 65 | 286 | 3.0 | 10.0 | 0.00 | 0.00 | 0.00 | 68 | 1018.0 |
| 20260506190723 | 65 | 259 | 4.0 | 7.0 | 0.00 | 0.00 | 0.00 | 67 | 1018.1 |
| 20260506190223 | 65 | 286 | 4.0 | 10.0 | 0.00 | 0.00 | 0.00 | 67 | 1018.1 |
| 20260506185941 | 65 | 316 | 5.0 | 11.0 | 0.00 | 0.00 | 0.00 | 68 | 1018.1 |
| 20260506185442 | 65 | 289 | 6.0 | 12.0 | 0.00 | 0.00 | 0.00 | 67 | 1018.1 |
| 20260506184720 | 66 | 285 | 6.0 | 12.0 | 0.00 | 0.00 | 0.00 | 67 | 1018.1 |
| 20260506184220 | 65 | 333 | 4.0 | 14.0 | 0.00 | 0.00 | 0.00 | 67 | 1018.2 |
| 20260506183721 | 65 | 271 | 5.0 | 14.0 | 0.00 | 0.00 | 0.00 | 67 | 1018.3 |
| 20260506183221 | 65 | 295 | 4.0 | 12.0 | 0.00 | 0.00 | 0.00 | 68 | 1018.2 |
| 20260506182720 | 65 | 281 | 7.0 | 13.0 | 0.00 | 0.00 | 0.00 | 69 | 1018.3 |
| 20260506182220 | 64 | 257 | 6.0 | 13.0 | 0.00 | 0.00 | 0.00 | 70 | 1018.3 |
| 20260506181943 | 64 | 295 | 5.0 | 10.0 | 0.00 | 0.00 | 0.00 | 70 | 1018.3 |
| 20260506181221 | 64 | 262 | 5.0 | 11.0 | 0.00 | 0.00 | 0.00 | 69 | 1018.3 |
| 20260506180941 | 63 | 285 | 8.0 | 12.0 | 0.00 | 0.00 | 0.00 | 71 | 1018.3 |
| 20260506180220 | 62 | 296 | 6.0 | 12.0 | 0.00 | 0.00 | 0.00 | 72 | 1018.3 |
| 20260506175720 | 62 | 278 | 7.0 | 12.0 | 0.00 | 0.00 | 0.00 | 70 | 1018.3 |
| 20260506175220 | 63 | 275 | 5.0 | 9.0 | 0.00 | 0.00 | 0.00 | 71 | 1018.3 |
| 20260506174942 | 62 | 292 | 4.0 | 11.0 | 0.00 | 0.00 | 0.00 | 72 | 1018.3 |
| 20260506174221 | 62 | 292 | 8.0 | 11.0 | 0.00 | 0.00 | 0.00 | 71 | 1018.4 |
| 20260506173719 | 63 | 292 | 6.0 | 13.0 | 0.00 | 0.00 | 0.00 | 71 | 1018.3 |
| 20260506173218 | 63 | 305 | 7.0 | 13.0 | 0.00 | 0.00 | 0.00 | 71 | 1018.4 |
| 20260506172718 | 62 | 275 | 4.0 | 13.0 | 0.00 | 0.00 | 0.00 | 72 | 1018.4 |
| 20260506172219 | 61 | 293 | 7.0 | 13.0 | 0.00 | 0.00 | 0.00 | 73 | 1018.4 |
| 20260506171719 | 61 | 279 | 7.0 | 12.0 | 0.00 | 0.00 | 0.00 | 73 | 1018.3 |
| 20260506171220 | 61 | 258 | 6.0 | 10.0 | 0.00 | 0.00 | 0.00 | 73 | 1018.3 |
| 20260506170720 | 61 | 289 | 3.0 | 10.0 | 0.00 | 0.00 | 0.00 | 73 | 1018.4 |
| 20260506170221 | 61 | 309 | 2.0 | 7.0 | 0.00 | 0.00 | 0.00 | 74 | 1018.4 |
| 20260506165720 | 61 | 343 | 4.0 | 7.0 | 0.00 | 0.00 | 0.00 | 74 | 1018.3 |
| 20260506165219 | 61 | 289 | 2.0 | 10.0 | 0.00 | 0.00 | 0.00 | 74 | 1018.3 |
| 20260506164719 | 61 | 299 | 6.0 | 10.0 | 0.00 | 0.00 | 0.00 | 74 | 1018.3 |
| 20260506164221 | 61 | 296 | 3.0 | 10.0 | 0.00 | 0.00 | 0.00 | 74 | 1018.4 |
| 20260506163719 | 61 | 289 | 5.0 | 10.0 | 0.00 | 0.00 | 0.00 | 74 | 1018.4 |
| 20260506163218 | 61 | 275 | 4.0 | 7.0 | 0.00 | 0.00 | 0.00 | 75 | 1018.4 |
| 20260506162939 | 61 | 261 | 4.0 | 6.0 | 0.00 | 0.00 | 0.00 | 74 | 1018.3 |
| 20260506162218 | 60 | 338 | 2.0 | 6.0 | 0.00 | 0.00 | 0.00 | 75 | 1018.3 |
| 20260506161936 | 60 | 321 | 4.0 | 6.0 | 0.00 | 0.00 | 0.00 | 76 | 1018.4 |
| 20260506161218 | 60 | 257 | 3.0 | 5.0 | 0.00 | 0.00 | 0.00 | 75 | 1018.4 |
| 20260506160717 | 60 | 295 | 2.0 | 5.0 | 0.00 | 0.00 | 0.00 | 76 | 1018.3 |
| 20260506160217 | 60 | 306 | 3.0 | 5.0 | 0.00 | 0.00 | 0.00 | 76 | 1018.3 |
| 20260506155717 | 59 | 324 | 2.0 | 5.0 | 0.00 | 0.00 | 0.00 | 78 | 1018.4 |
| 20260506155216 | 59 | 314 | 4.0 | 5.0 | 0.00 | 0.00 | 0.00 | 78 | 1018.3 |
| 20260506154716 | 59 | 303 | 2.0 | 5.0 | 0.00 | 0.00 | 0.00 | 79 | 1018.3 |
| 20260506154216 | 58 | 283 | 3.0 | 5.0 | 0.00 | 0.00 | 0.00 | 80 | 1018.3 |
| 20260506154200 | 58 | 275 | 3.0 | 4.0 | 0.00 | 0.00 | 0.00 | 82 | 1018.4 |
| 20260506153216 | 58 | 186 | 1.0 | 2.0 | 0.00 | 0.00 | 0.00 | 82 | 1018.3 |
| 20260506153211 | 57 | 183 | 1.0 | 2.0 | 0.00 | 0.00 | 0.00 | 82 | 1018.2 |
| 20260506152217 | 57 | 182 | 1.0 | 3.0 | 0.00 | 0.00 | 0.00 | 82 | 1018.3 |
| 20260506151716 | 57 | 176 | 1.0 | 3.0 | 0.00 | 0.00 | 0.00 | 83 | 1018.3 |
| 20260506151216 | 57 | 176 | 0.0 | 2.0 | 0.00 | 0.00 | 0.00 | 84 | 1018.3 |
| 20260506150936 | 56 | 175 | 1.0 | 3.0 | 0.00 | 0.00 | 0.00 | 84 | 1018.4 |
| 20260506150439 | 56 | 155 | 2.0 | 3.0 | 0.00 | 0.00 | 0.00 | 84 | 1018.3 |
| 20260506145719 | 56 | 135 | 1.0 | 4.0 | 0.00 | 0.00 | 0.00 | 85 | 1018.3 |
| 20260506145217 | 56 | 134 | 2.0 | 4.0 | 0.00 | 0.00 | 0.00 | 85 | 1018.3 |
| 20260506144717 | 55 | 69 | 2.0 | 3.0 | 0.00 | 0.00 | 0.00 | 85 | 1018.3 |
| 20260506144217 | 55 | 58 | 2.0 | 3.0 | 0.00 | 0.00 | 0.00 | 85 | 1018.4 |
| 20260506143716 | 55 | 39 | 2.0 | 3.0 | 0.00 | 0.00 | 0.00 | 86 | 1018.3 |
| 20260506143216 | 55 | 38 | 2.0 | 3.0 | 0.00 | 0.00 | 0.00 | 86 | 1018.2 |
| 20260506142716 | 55 | 38 | 2.0 | 3.0 | 0.00 | 0.00 | 0.00 | 86 | 1018.2 |
| 20260506142217 | 55 | 38 | 0.0 | 0.0 | 0.00 | 0.00 | 0.00 | 86 | 1018.2 |
| 20260506141717 | 55 | 37 | 0.0 | 0.0 | 0.00 | 0.00 | 0.00 | 86 | 1018.3 |
| 20260506141216 | 55 | 37 | 0.0 | 0.0 | 0.00 | 0.00 | 0.00 | 86 | 1018.2 |
| 20260506140717 | 54 | 37 | 0.0 | 0.0 | 0.00 | 0.00 | 0.00 | 86 | 1018.0 |
| 20260506140214 | 54 | 37 | 0.0 | 0.0 | 0.00 | 0.00 | 0.00 | 86 | 1017.9 |
| 20260506135714 | 54 | 37 | 0.0 | 0.0 | 0.00 | 0.00 | 0.00 | 86 | 1017.9 |
| 20260506135440 | 54 | 37 | 0.0 | 0.0 | 0.00 | 0.00 | 0.00 | 86 | 1017.9 |
| 20260506134714 | 54 | 37 | 0.0 | 0.0 | 0.00 | 0.00 | 0.00 | 85 | 1017.8 |
| 20260506134214 | 54 | 37 | 0.0 | 0.0 | 0.00 | 0.00 | 0.00 | 85 | 1017.7 |
| 20260506133715 | 54 | 37 | 0.0 | 0.0 | 0.00 | 0.00 | 0.00 | 85 | 1017.6 |
| 20260506133214 | 54 | 37 | 0.0 | 0.0 | 0.00 | 0.00 | 0.00 | 85 | 1017.5 |
| 20260506132713 | 54 | 37 | 0.0 | 0.0 | 0.00 | 0.00 | 0.00 | 85 | 1017.5 |
| 20260506132214 | 55 | 37 | 0.0 | 0.0 | 0.00 | 0.00 | 0.00 | 85 | 1017.4 |
| 20260506131713 | 55 | 37 | 0.0 | 0.0 | 0.00 | 0.00 | 0.00 | 85 | 1017.4 |
| 20260506131436 | 55 | 37 | 0.0 | 0.0 | 0.00 | 0.00 | 0.00 | 85 | 1017.4 |
| 20260506130714 | 55 | 37 | 0.0 | 0.0 | 0.00 | 0.00 | 0.00 | 85 | 1017.3 |
| 20260506130214 | 55 | 39 | 0.0 | 0.0 | 0.00 | 0.00 | 0.00 | 85 | 1017.3 |
| 20260506125936 | 55 | 39 | 0.0 | 0.0 | 0.00 | 0.00 | 0.00 | 86 | 1017.3 |
| 20260506125213 | 55 | 39 | 0.0 | 0.0 | 0.00 | 0.00 | 0.00 | 86 | 1017.3 |
| 20260506124712 | 55 | 39 | 0.0 | 0.0 | 0.00 | 0.00 | 0.00 | 86 | 1017.2 |
| 20260506124213 | 55 | 39 | 0.0 | 0.0 | 0.00 | 0.00 | 0.00 | 86 | 1017.2 |
| 20260506123712 | 55 | 39 | 0.0 | 0.0 | 0.00 | 0.00 | 0.00 | 86 | 1017.2 |
| 20260506123438 | 55 | 39 | 0.0 | 0.0 | 0.00 | 0.00 | 0.00 | 86 | 1017.2 |
| 20260506122713 | 55 | 39 | 0.0 | 0.0 | 0.00 | 0.00 | 0.00 | 86 | 1017.3 |
| 20260506122213 | 54 | 39 | 0.0 | 0.0 | 0.00 | 0.00 | 0.00 | 86 | 1017.2 |
| 20260506121713 | 54 | 39 | 0.0 | 0.0 | 0.00 | 0.00 | 0.00 | 86 | 1017.2 |
| 20260506121442 | 54 | 39 | 0.0 | 0.0 | 0.00 | 0.00 | 0.00 | 86 | 1017.2 |
| 20260506120712 | 54 | 39 | 0.0 | 0.0 | 0.00 | 0.00 | 0.00 | 86 | 1017.2 |
| 20260506120211 | 54 | 39 | 0.0 | 0.0 | 0.00 | 0.00 | 0.00 | 86 | 1017.1 |
| 20260506115712 | 54 | 39 | 0.0 | 0.0 | 0.00 | 0.00 | 0.00 | 87 | 1017.0 |
| 20260506115212 | 54 | 39 | 0.0 | 0.0 | 0.00 | 0.00 | 0.00 | 87 | 1017.1 |
| 20260506114711 | 54 | 39 | 0.0 | 0.0 | 0.00 | 0.00 | 0.00 | 87 | 1017.0 |
| 20260506114430 | 54 | 39 | 0.0 | 0.0 | 0.00 | 0.00 | 0.00 | 87 | 1016.9 |
| 20260506114200 | 54 | 39 | 0.0 | 0.0 | 0.00 | 0.00 | 0.00 | 87 | 1017.0 |
| 20260506113211 | 54 | 39 | 0.0 | 0.0 | 0.00 | 0.00 | 0.00 | 87 | 1017.0 |
| 20260506112711 | 54 | 39 | 0.0 | 0.0 | 0.00 | 0.00 | 0.00 | 87 | 1016.9 |
| 20260506112211 | 54 | 39 | 0.0 | 0.0 | 0.00 | 0.00 | 0.00 | 87 | 1016.9 |
| 20260506111708 | 54 | 39 | 0.0 | 2.0 | 0.00 | 0.00 | 0.00 | 87 | 1016.9 |
| 20260506111206 | 53 | 39 | 0.0 | 2.0 | 0.00 | 0.00 | 0.00 | 87 | 1016.8 |
| 20260506110702 | 53 | 39 | 0.0 | 3.0 | 0.00 | 0.00 | 0.00 | 87 | 1016.8 |
| 20260506110202 | 53 | 39 | 1.0 | 3.0 | 0.00 | 0.00 | 0.00 | 87 | 1016.9 |
| 20260506105704 | 53 | 38 | 1.0 | 3.0 | 0.00 | 0.00 | 0.00 | 87 | 1016.9 |
| 20260506105202 | 53 | 44 | 2.0 | 3.0 | 0.00 | 0.00 | 0.00 | 87 | 1016.9 |
| 20260506104703 | 53 | 44 | 2.0 | 4.0 | 0.00 | 0.00 | 0.00 | 87 | 1016.9 |
| 20260506104201 | 53 | 44 | 2.0 | 4.0 | 0.00 | 0.00 | 0.00 | 87 | 1016.8 |
| 20260506103659 | 53 | 44 | 3.0 | 3.0 | 0.00 | 0.00 | 0.00 | 87 | 1016.8 |
| 20260506103156 | 53 | 44 | 2.0 | 4.0 | 0.00 | 0.00 | 0.00 | 87 | 1016.7 |
| 20260506102653 | 53 | 44 | 3.0 | 4.0 | 0.00 | 0.00 | 0.00 | 87 | 1016.7 |
| 20260506102150 | 53 | 45 | 3.0 | 4.0 | 0.00 | 0.00 | 0.00 | 87 | 1016.8 |
| 20260506101651 | 53 | 55 | 2.0 | 4.0 | 0.00 | 0.00 | 0.00 | 87 | 1016.7 |
| 20260506101150 | 53 | 55 | 2.0 | 4.0 | 0.00 | 0.00 | 0.00 | 88 | 1016.7 |
| 20260506100913 | 53 | 58 | 2.0 | 3.0 | 0.00 | 0.00 | 0.00 | 87 | 1016.6 |
| 20260506100147 | 53 | 63 | 2.0 | 3.0 | 0.00 | 0.00 | 0.00 | 87 | 1016.7 |
| 20260506095646 | 53 | 65 | 2.0 | 3.0 | 0.00 | 0.00 | 0.00 | 87 | 1016.6 |
| 20260506095408 | 53 | 63 | 1.0 | 3.0 | 0.00 | 0.00 | 0.00 | 87 | 1016.7 |
| 20260506094645 | 53 | 65 | 2.0 | 3.0 | 0.00 | 0.00 | 0.00 | 86 | 1016.7 |
| 20260506094145 | 53 | 65 | 2.0 | 3.0 | 0.00 | 0.00 | 0.00 | 86 | 1016.6 |
| 20260506093904 | 53 | 71 | 2.0 | 3.0 | 0.00 | 0.00 | 0.00 | 86 | 1016.6 |
| 20260506093144 | 54 | 71 | 2.0 | 3.0 | 0.00 | 0.00 | 0.00 | 86 | 1016.7 |
| 20260506092640 | 54 | 71 | 2.0 | 3.0 | 0.00 | 0.00 | 0.00 | 87 | 1016.7 |
| 20260506092403 | 53 | 75 | 1.0 | 3.0 | 0.00 | 0.00 | 0.00 | 86 | 1016.7 |
| 20260506091640 | 54 | 80 | 0.0 | 4.0 | 0.00 | 0.00 | 0.00 | 86 | 1016.7 |
| 20260506091137 | 54 | 80 | 2.0 | 4.0 | 0.00 | 0.00 | 0.00 | 86 | 1016.8 |
| 20260506090638 | 54 | 338 | 1.0 | 2.0 | 0.00 | 0.00 | 0.00 | 86 | 1016.9 |
| 20260506090136 | 54 | 338 | 0.0 | 2.0 | 0.00 | 0.00 | 0.00 | 86 | 1016.8 |
| 20260506085635 | 54 | 338 | 1.0 | 4.0 | 0.00 | 0.00 | 0.00 | 86 | 1016.7 |
| 20260506085133 | 54 | 338 | 2.0 | 4.0 | 0.00 | 0.00 | 0.00 | 86 | 1016.7 |
| 20260506084632 | 54 | 338 | 3.0 | 4.0 | 0.00 | 0.00 | 0.00 | 86 | 1016.6 |
| 20260506084133 | 54 | 338 | 2.0 | 3.0 | 0.00 | 0.00 | 0.00 | 86 | 1016.6 |
| 20260506083632 | 54 | 338 | 2.0 | 3.0 | 0.00 | 0.00 | 0.00 | 86 | 1016.7 |
| 20260506083133 | 54 | 338 | 2.0 | 3.0 | 0.00 | 0.00 | 0.00 | 86 | 1016.7 |
| 20260506082634 | 54 | 338 | 2.0 | 4.0 | 0.00 | 0.00 | 0.00 | 86 | 1016.8 |
| 20260506082131 | 54 | 338 | 2.0 | 4.0 | 0.00 | 0.00 | 0.00 | 85 | 1016.8 |
| 20260506081853 | 54 | 334 | 4.0 | 4.0 | 0.00 | 0.00 | 0.00 | 85 | 1016.8 |
| 20260506081132 | 54 | 327 | 1.0 | 3.0 | 0.00 | 0.00 | 0.00 | 85 | 1016.7 |
| 20260506080631 | 55 | 327 | 2.0 | 4.0 | 0.00 | 0.00 | 0.00 | 84 | 1016.7 |
| 20260506080130 | 55 | 326 | 2.0 | 4.0 | 0.00 | 0.00 | 0.00 | 84 | 1016.8 |
| 20260506073132 | 55 | 326 | 4.0 | 5.0 | 0.00 | 0.00 | 0.00 | 84 | 1016.7 |
| 20260506072632 | 55 | 324 | 3.0 | 5.0 | 0.00 | 0.00 | 0.00 | 84 | 1016.6 |
| 20260506072133 | 55 | 330 | 2.0 | 5.0 | 0.00 | 0.00 | 0.00 | 84 | 1016.5 |
| 20260506071633 | 55 | 340 | 2.0 | 4.0 | 0.00 | 0.00 | 0.00 | 84 | 1016.5 |
| 20260506071131 | 55 | 340 | 2.0 | 3.0 | 0.00 | 0.00 | 0.00 | 83 | 1016.5 |
| 20260506070632 | 55 | 340 | 2.0 | 3.0 | 0.00 | 0.00 | 0.00 | 83 | 1016.4 |
| 20260506070131 | 55 | 344 | 0.0 | 3.0 | 0.00 | 0.00 | 0.00 | 83 | 1016.4 |
| 20260506062124 | 56 | 326 | 3.0 | 7.0 | 0.00 | 0.00 | 0.00 | 82 | 1016.1 |
| 20260506061622 | 56 | 336 | 4.0 | 9.0 | 0.00 | 0.00 | 0.00 | 81 | 1016.1 |
| 20260506061117 | 56 | 331 | 5.0 | 9.0 | 0.00 | 0.00 | 0.00 | 82 | 1016.1 |
| 20260506060615 | 56 | 317 | 4.0 | 6.0 | 0.00 | 0.00 | 0.00 | 81 | 1016.0 |
| 20260506060116 | 56 | 326 | 3.0 | 6.0 | 0.00 | 0.00 | 0.00 | 81 | 1015.8 |
| 20260506051102 | 57 | 313 | 6.0 | 10.0 | 0.00 | 0.00 | 0.00 | 81 | 1015.6 |
| 20260506050603 | 57 | 336 | 5.0 | 11.0 | 0.00 | 0.00 | 0.00 | 80 | 1015.7 |
| 20260506050103 | 57 | 340 | 8.0 | 13.0 | 0.00 | 0.00 | 0.00 | 80 | 1015.6 |
| 20260506044604 | 58 | 299 | 5.0 | 11.0 | 0.00 | 0.00 | 0.00 | 79 | 1015.5 |
| 20260506044104 | 58 | 336 | 8.0 | 12.0 | 0.00 | 0.00 | 0.00 | 79 | 1015.4 |
| 20260506043603 | 58 | 310 | 6.0 | 12.0 | 0.00 | 0.00 | 0.00 | 79 | 1015.4 |
| 20260506043105 | 58 | 319 | 5.0 | 7.0 | 0.00 | 0.00 | 0.00 | 78 | 1015.4 |
| 20260506042604 | 58 | 316 | 3.0 | 5.0 | 0.00 | 0.00 | 0.00 | 78 | 1015.2 |
| 20260506042103 | 58 | 319 | 2.0 | 4.0 | 0.00 | 0.00 | 0.00 | 78 | 1015.4 |
| 20260506041603 | 58 | 317 | 2.0 | 4.0 | 0.00 | 0.00 | 0.00 | 77 | 1015.2 |
| 20260506041104 | 58 | 316 | 2.0 | 5.0 | 0.00 | 0.00 | 0.00 | 77 | 1015.2 |
| 20260506040824 | 58 | 323 | 4.0 | 5.0 | 0.00 | 0.00 | 0.00 | 77 | 1015.1 |
| 20260506035829 | 58 | 337 | 3.0 | 5.0 | 0.00 | 0.00 | 0.00 | 77 | 1014.8 |
| 20260506035103 | 58 | 340 | 4.0 | 7.0 | 0.00 | 0.00 | 0.00 | 77 | 1014.9 |
| 20260506034823 | 58 | 327 | 4.0 | 9.0 | 0.00 | 0.00 | 0.00 | 77 | 1014.8 |
| 20260506034102 | 58 | 336 | 5.0 | 9.0 | 0.00 | 0.00 | 0.00 | 77 | 1014.8 |
| 20260506033602 | 58 | 300 | 4.0 | 9.0 | 0.00 | 0.00 | 0.00 | 77 | 1014.6 |
| 20260506033059 | 58 | 336 | 5.0 | 10.0 | 0.00 | 0.00 | 0.00 | 77 | 1014.5 |
| 20260506032600 | 58 | 327 | 5.0 | 11.0 | 0.00 | 0.00 | 0.00 | 77 | 1014.4 |
| 20260506032102 | 58 | 324 | 6.0 | 11.0 | 0.00 | 0.00 | 0.00 | 77 | 1014.3 |
| 20260506031602 | 58 | 321 | 6.0 | 10.0 | 0.00 | 0.00 | 0.00 | 77 | 1014.4 |
| 20260506031326 | 58 | 338 | 5.0 | 10.0 | 0.00 | 0.00 | 0.00 | 77 | 1014.3 |
| 20260506030602 | 58 | 321 | 6.0 | 9.0 | 0.00 | 0.00 | 0.00 | 77 | 1014.3 |
| 20260506025600 | 58 | 319 | 4.0 | 7.0 | 0.00 | 0.00 | 0.00 | 77 | 1014.1 |
| 20260506025059 | 59 | 326 | 4.0 | 7.0 | 0.00 | 0.00 | 0.00 | 76 | 1014.1 |
| 20260506024559 | 59 | 340 | 4.0 | 5.0 | 0.00 | 0.00 | 0.00 | 76 | 1014.1 |
| 20260506024059 | 59 | 309 | 3.0 | 7.0 | 0.00 | 0.00 | 0.00 | 76 | 1014.0 |
| 20260506023819 | 59 | 0 | 4.0 | 7.0 | 0.00 | 0.00 | 0.00 | 76 | 1014.0 |
| 20260506023101 | 59 | 324 | 3.0 | 6.0 | 0.00 | 0.00 | 0.00 | 76 | 1014.0 |
| 20260506022558 | 59 | 331 | 3.0 | 6.0 | 0.00 | 0.00 | 0.00 | 76 | 1013.9 |
| 20260506022059 | 59 | 319 | 3.0 | 6.0 | 0.00 | 0.00 | 0.00 | 76 | 1013.9 |
| 20260506021600 | 59 | 320 | 4.0 | 5.0 | 0.00 | 0.00 | 0.00 | 76 | 1013.9 |
| 20260506021100 | 59 | 313 | 3.0 | 6.0 | 0.00 | 0.00 | 0.00 | 76 | 1013.8 |
| 20260506020816 | 59 | 316 | 4.0 | 7.0 | 0.00 | 0.00 | 0.00 | 75 | 1013.8 |
| 20260506020057 | 59 | 326 | 4.0 | 7.0 | 0.00 | 0.00 | 0.00 | 75 | 1013.8 |
| 20260506020042 | 60 | 319 | 5.0 | 9.0 | 0.00 | 0.00 | 0.00 | 75 | 1013.8 |
| 20260506015053 | 60 | 286 | 5.0 | 9.0 | 0.00 | 0.00 | 0.00 | 75 | 1013.8 |
| 20260506014554 | 60 | 344 | 5.0 | 7.0 | 0.00 | 0.00 | 0.00 | 75 | 1013.9 |
| 20260506014053 | 60 | 305 | 3.0 | 9.0 | 0.00 | 0.00 | 0.00 | 75 | 1013.9 |
| 20260506013819 | 60 | 330 | 3.0 | 10.0 | 0.00 | 0.00 | 0.00 | 74 | 1014.0 |
| 20260506013052 | 60 | 303 | 4.0 | 10.0 | 0.00 | 0.00 | 0.00 | 74 | 1013.9 |
| 20260506012816 | 60 | 327 | 4.0 | 7.0 | 0.00 | 0.00 | 0.00 | 73 | 1013.9 |
| 20260506012049 | 60 | 317 | 4.0 | 7.0 | 0.00 | 0.00 | 0.00 | 72 | 1013.8 |
| 20260506011538 | 60 | 305 | 3.0 | 6.0 | 0.00 | 0.00 | 0.00 | 72 | 1013.9 |
| 20260506011036 | 60 | 303 | 2.0 | 5.0 | 0.00 | 0.00 | 0.00 | 72 | 1013.8 |
| 20260506010534 | 60 | 303 | 3.0 | 6.0 | 0.00 | 0.00 | 0.00 | 71 | 1013.8 |
| 20260506010032 | 60 | 282 | 2.0 | 6.0 | 0.00 | 0.00 | 0.00 | 71 | 1013.8 |
| 20260506005534 | 60 | 306 | 3.0 | 4.0 | 0.00 | 0.00 | 0.00 | 71 | 1013.7 |
| 20260506005033 | 60 | 299 | 3.0 | 4.0 | 0.00 | 0.00 | 0.00 | 71 | 1013.8 |
| 20260506004531 | 60 | 321 | 2.0 | 4.0 | 0.00 | 0.00 | 0.00 | 71 | 1013.8 |
| 20260506004031 | 60 | 293 | 3.0 | 4.0 | 0.00 | 0.00 | 0.00 | 71 | 1013.8 |
| 20260506003532 | 60 | 262 | 1.0 | 4.0 | 0.00 | 0.00 | 0.00 | 71 | 1013.9 |
| 20260506003031 | 60 | 313 | 1.0 | 4.0 | 0.00 | 0.00 | 0.00 | 71 | 1013.7 |
| 20260506002532 | 60 | 292 | 1.0 | 6.0 | 0.00 | 0.00 | 0.00 | 71 | 1013.7 |
| 20260506002032 | 60 | 290 | 3.0 | 6.0 | 0.00 | 0.00 | 0.00 | 70 | 1013.6 |
| 20260506001758 | 60 | 307 | 3.0 | 5.0 | 0.00 | 0.00 | 0.00 | 71 | 1013.6 |
| 20260506001513 | 60 | 299 | 4.0 | 5.0 | 0.00 | 0.00 | 0.00 | 70 | 1013.6 |
| 20260506000530 | 60 | 296 | 3.0 | 7.0 | 0.00 | 0.00 | 0.00 | 70 | 1013.5 |
| 20260506000249 | 61 | 278 | 5.0 | 7.0 | 0.00 | 0.00 | 0.00 | 70 | 1013.5 |
| 20260506000027 | 61 | 289 | 5.0 | 7.0 | 0.00 | 0.00 | 0.00 | 70 | 1013.5 |
| 20260505235031 | 61 | 296 | 3.0 | 6.0 | 0.00 | 0.00 | 0.00 | 71 | 1013.4 |
| 20260505234530 | 60 | 298 | 4.0 | 7.0 | 0.00 | 0.00 | 0.00 | 71 | 1013.5 |
| 20260505234028 | 60 | 300 | 4.0 | 10.0 | 0.00 | 0.00 | 0.00 | 71 | 1013.5 |
| 20260505233747 | 60 | 299 | 2.0 | 10.0 | 0.00 | 0.00 | 0.00 | 71 | 1013.5 |
| 20260505233027 | 60 | 292 | 6.0 | 9.0 | 0.00 | 0.00 | 0.00 | 70 | 1013.5 |
| 20260505232526 | 60 | 309 | 6.0 | 11.0 | 0.00 | 0.00 | 0.00 | 70 | 1013.6 |
| 20260505232026 | 60 | 316 | 4.0 | 11.0 | 0.00 | 0.00 | 0.00 | 70 | 1013.6 |